Location: Poughquag
(41.6090°N, 73.6820°W)
Time: 09:34:39
(UTC-05:00)

Vanguard 1 - Pass Details

Date: 05 December 2023
Orbit: 653 x 3826 km, 34.3° (Epoch: 25 February)

Event Time Altitude Azimuth Distance (km) Brightness Sun altitude
Rises 18:30:21 0° 247° (WSW) 5,727 15.3 -22.8°
Reaches altitude 10° 18:33:31 10° 245° (WSW) 5,061 14.7 -23.4°
Maximum altitude 18:49:42 67° 167° (SSE) 3,599 12.7 -26.4°
Enters shadow 19:01:55 36° 101° (E) 5,022 13.0 -28.7°
Drops below altitude 10° 19:12:54 10° 92° (E) 6,895 - -30.7°
Sets 19:18:06 0° 90° (E) 7,804 - -31.7°
